Location: Finnegan
(51.1333°N, 112.0833°W)
Time: 21:00:31
(UTC+00:00)

Envisat - Pass Details

Date: 06 December 2021
Orbit: 764 x 766 km, 98.2° (Epoch: 26 January)

Event Time Altitude Azimuth Distance (km) Brightness Sun altitude
Rises 00:33:42 0° 200° (SSW) 3,222 6.9 -10.6°
Reaches altitude 10° 00:36:23 10° 214° (SSW) 2,301 6.4 -11.0°
Maximum altitude 00:40:31 25° 268° (W) 1,522 5.5 -11.6°
Drops below altitude 10° 00:44:41 10° 323° (NW) 2,316 5.7 -12.2°
Sets 00:47:25 0° 337° (NNW) 3,247 6.3 -12.6°
